Вернуться в каталог

COSMOS 2142

АктивенВоенныеPO
NORAD 21230·PAYLOAD·🇷🇺 Russia

Запущен Apr 16, 1991 с Plesetsk Cosmodrome

Loading…

Ближайшие Пролёты (ближайшие 24 часа)

TLE

СвежийSource: Space-Track

Эпоха: Sep 14, 2026, 05:19 UTC

1 21230U 91029A   26257.22154975  .00000064  00000-0  52201-4 0  9990
2 21230  82.9596 173.2016 0037199 322.4546 189.9397 13.73383363774570

Отслеживайте COSMOS 2142 в реальном времени с AllMySat

Download on the App Store